Theta_e
328 328 328 327 326 325 324 323 322 322 321 321 320 321 321 320 319 319 318 318 318 320 321 322 322 323 322 322 323 323 324 324 324 324 324 325 325 325 326 327 327 328 327 327 327 327 327 327 325 324 324 324 325 325 325 324 324 324 324 324 324 323 322
329 328 328 327 326 325 324 323 322 322 321 321 321 321 321 320 320 320 320 319 319 319 319 320 321 322 322 323 323 323 323 323 323 323 323 324 324 324 325 325 326 326 326 326 326 326 326 326 324 323 323 324 324 325 325 324 324 324 323 324 323 323 323
329 328 328 328 327 326 325 324 323 322 322 321 321 321 321 321 321 320 320 320 319 319 319 319 320 320 321 322 323 323 323 323 323 322 321 322 324 324 324 324 325 326 326 326 326 326 326 325 324 323 323 323 323 323 324 324 324 323 323 323 323 323 322
329 328 328 328 328 327 324 324 323 322 322 321 322 322 321 321 321 321 321 320 320 319 318 318 319 318 319 319 321 323 323 323 323 322 322 322 323 324 323 324 324 325 325 325 325 326 326 326 326 325 324 323 323 323 324 324 324 323 322 322 322 322 322
330 328 328 328 328 327 325 323 323 323 323 322 323 322 321 322 321 321 321 320 320 319 317 318 317 316 316 318 320 322 322 322 322 322 323 323 323 323 323 323 324 324 324 325 325 325 325 326 326 325 324 323 322 323 322 322 322 323 322 321 321 321 321
330 329 328 328 328 327 326 324 324 324 323 323 323 323 322 322 322 321 321 321 320 319 318 317 317 315 314 315 318 321 322 322 322 322 322 322 322 323 323 323 323 323 323 324 324 324 324 325 325 324 324 322 321 322 321 321 321 322 321 321 321 320 320
331 329 329 329 328 328 327 326 324 324 324 324 323 323 323 322 322 322 322 322 321 321 319 318 317 317 315 315 317 319 320 322 322 322 322 322 323 323 323 323 323 323 323 323 323 323 323 324 324 324 323 322 321 321 321 320 320 321 321 321 320 320 319
332 331 330 329 329 328 328 327 326 325 325 325 324 324 324 323 323 323 323 322 322 322 321 319 319 319 318 318 319 319 320 321 321 321 321 321 322 323 323 323 323 322 322 323 323 323 323 323 322 322 322 322 321 321 320 320 320 321 321 321 320 318 317
332 331 330 330 329 329 328 328 327 326 326 326 325 325 325 325 324 324 323 323 323 322 322 321 321 321 320 320 320 320 321 320 320 320 319 320 320 321 322 323 322 322 322 322 322 322 322 322 322 322 322 322 321 320 319 319 321 321 320 319 318 316 315
332 331 330 330 330 330 330 329 328 327 326 326 326 326 326 325 324 323 323 323 323 323 323 322 322 322 322 321 321 321 321 321 320 320 319 319 319 319 320 321 322 322 321 321 321 321 321 322 322 321 320 321 320 320 319 319 320 320 318 317 316 316 315
332 331 330 329 330 330 330 329 329 328 327 326 326 326 327 326 325 323 322 322 322 323 322 322 322 322 322 322 322 322 322 322 321 321 321 320 320 319 319 319 319 321 321 321 321 321 320 320 320 319 318 319 319 319 320 319 319 317 316 317 316 314 314
332 331 330 330 330 330 330 330 330 329 328 327 326 326 327 327 327 326 324 322 321 322 322 322 321 322 322 322 322 322 322 323 322 322 322 322 321 321 320 319 318 318 319 319 320 319 319 320 320 319 319 319 319 319 319 319 318 316 316 318 317 314 314
332 331 330 330 330 330 331 331 330 330 329 328 327 326 327 327 328 328 327 324 322 321 322 322 322 322 322 322 322 322 323 323 323 322 322 322 322 322 322 321 320 319 318 318 319 319 319 320 320 320 320 319 319 319 319 319 319 318 318 320 320 319 318
332 332 331 331 331 331 331 331 331 330 330 329 328 328 327 327 328 328 328 327 325 323 322 322 322 322 323 323 322 322 323 323 323 323 323 323 323 322 322 322 322 321 321 320 320 320 320 321 321 321 321 320 320 320 320 320 320 320 320 321 321 321 321
332 332 332 332 332 332 331 331 331 331 331 330 330 330 329 329 329 329 329 328 327 326 325 324 323 323 323 323 323 323 322 323 323 323 323 323 323 323 323 322 322 322 322 322 322 321 321 321 321 321 321 320 320 320 320 320 321 321 321 321 321 322 322
333 333 332 332 332 332 332 332 331 331 332 332 332 332 331 331 331 331 330 329 329 329 328 327 326 325 325 324 323 322 322 322 322 322 322 323 323 323 322 322 322 322 322 323 322 322 322 322 322 321 321 321 321 320 320 321 321 321 321 322 322 323 323
333 333 333 333 333 332 332 332 332 332 332 333 332 332 332 332 331 331 330 330 329 329 329 329 328 327 327 326 324 323 323 323 323 323 323 322 322 322 322 322 322 322 322 323 322 322 323 323 323 322 322 322 321 321 321 321 321 321 321 322 322 323 323
332 332 332 332 333 333 332 332 332 332 332 332 332 332 332 331 331 331 331 330 330 330 330 330 329 328 328 327 326 325 325 325 326 325 325 324 323 322 322 322 322 322 323 323 323 322 322 322 323 323 323 323 322 322 322 322 322 322 321 322 323 323 324
332 333 332 332 333 333 332 331 332 331 331 332 332 332 331 331 331 331 331 330 330 330 330 329 329 329 328 328 328 328 328 327 327 327 326 326 326 325 324 324 324 324 324 324 323 323 323 323 323 323 323 323 323 322 322 322 323 323 323 323 323 324 324
333 333 333 332 332 332 332 332 332 331 331 331 331 331 331 331 331 330 329 329 329 329 329 329 329 328 328 328 328 328 328 328 328 328 327 327 327 327 326 325 325 325 325 324 324 324 324 324 323 323 323 324 323 323 323 323 324 324 324 323 324 324 324
332 332 332 332 331 331 331 331 331 331 331 330 330 330 330 330 330 329 329 329 329 328 328 328 328 327 327 327 327 326 326 327 327 328 327 327 327 327 326 325 325 324 324 324 324 324 324 324 324 324 324 324 324 324 324 324 324 324 324 324 323 323 323
331 331 331 331 331 331 331 330 330 330 330 330 329 329 329 329 329 329 328 327 327 327 327 326 326 326 326 325 325 325 325 325 326 326 327 326 326 325 324 324 324 324 324 324 323 323 323 323 323 324 324 324 324 324 324 324 324 324 324 324 323 323 323
330 329 329 329 329 330 329 329 329 329 329 329 328 328 328 327 327 326 326 325 325 325 325 325 325 324 324 324 324 324 324 324 325 325 325 325 324 324 323 323 323 323 323 323 322 322 322 322 323 322 322 323 322 323 323 323 324 324 324 324 324 324 323
327 327 326 326 327 328 328 328 328 327 327 327 327 326 325 325 325 324 323 324 324 323 323 323 322 322 322 321 321 320 320 322 323 323 323 324 323 323 323 323 322 321 321 322 322 322 322 322 322 322 322 322 321 321 322 322 322 322 322 323 322 322 321
325 325 325 324 325 325 325 325 325 325 325 324 324 323 323 323 322 321 321 321 320 320 319 319 318 317 316 316 316 316 318 320 320 320 320 321 321 321 321 321 320 318 318 319 319 319 319 320 319 319 319 319 319 320 319 319 319 319 320 320 320 319 319
323 323 323 323 323 323 323 323 322 322 322 321 320 320 319 318 317 317 316 315 314 313 312 310 309 308 308 308 309 310 313 316 316 317 317 318 318 318 318 319 318 317 315 314 314 314 315 315 315 314 315 315 315 315 316 316 316 315 316 317 317 318 318
320 320 320 320 320 320 321 320 319 318 317 315 314 312 311 310 309 309 308 307 306 305 304 303 303 302 302 303 303 304 307 309 310 312 314 314 314 315 315 316 316 316 313 311 312 312 312 313 314 313 313 313 312 310 311 312 312 312 313 313 314 315 315
317 317 317 316 316 315 315 314 313 312 311 309 308 307 305 304 303 302 302 302 301 301 301 301 300 300 301 301 300 301 303 306 310 311 311 312 312 313 313 313 313 312 310 308 308 307 306 309 311 310 308 308 307 306 306 307 308 309 310 310 311 311 311
315 315 314 313 313 312 311 310 310 310 309 308 308 307 306 305 305 304 303 303 303 302 300 300 300 299 300 300 300 304 306 308 310 311 309 310 311 310 309 309 308 306 305 303 303 302 301 304 306 305 303 302 302 302 303 304 304 305 305 306 305 305 305
314 314 313 313 312 311 311 310 310 311 312 311 311 310 310 310 309 307 306 306 306 305 303 301 300 300 300 299 301 307 311 310 308 307 306 306 307 306 305 305 304 302 302 301 301 301 300 301 303 303 302 303 303 303 302 301 302 302 301 302 301 301 301
315 314 314 313 313 312 312 311 309 311 313 313 312 312 312 312 311 309 306 305 306 307 305 302 300 300 300 299 300 306 312 312 308 307 306 304 303 303 303 302 302 302 302 302 301 302 301 301 302 303 304 308 310 307 303 301 301 301 301 301 301 300 300
315 315 313 313 313 313 313 311 310 310 313 314 313 312 312 312 312 312 307 303 303 304 304 302 300 300 300 299 299 304 310 311 309 309 309 306 305 305 303 302 302 302 302 302 302 302 301 301 302 303 306 311 312 310 304 301 302 302 301 302 303 301 300
315 315 314 313 313 313 313 313 312 312 313 314 313 312 312 311 312 312 309 305 303 303 303 302 302 300 299 299 298 301 307 310 309 309 309 308 308 309 307 307 305 303 302 302 302 302 301 302 302 302 306 311 312 309 304 302 303 302 302 302 302 300 300
313 314 314 314 314 314 314 314 314 314 314 314 313 312 313 312 312 312 311 309 307 305 303 303 303 302 300 301 300 300 304 308 307 307 308 309 309 310 310 310 310 307 303 302 302 302 301 302 302 301 304 308 307 304 303 303 303 302 301 301 301 302 303
311 311 312 312 313 313 313 313 313 313 313 313 313 313 313 313 312 312 311 311 311 310 307 304 303 303 302 302 302 302 303 304 303 303 305 307 309 310 309 310 310 308 304 303 303 303 302 302 302 302 303 304 303 302 302 303 303 304 304 305 305 307 308
309 310 310 310 310 310 311 311 311 312 312 312 312 312 313 313 313 312 311 311 311 312 311 309 306 304 304 304 304 303 303 303 303 302 303 305 308 308 309 310 309 306 303 303 304 304 304 303 302 302 303 303 303 303 302 302 303 303 305 307 308 308 308
309 309 309 309 309 309 309 309 310 310 311 311 311 311 311 311 311 311 311 311 310 310 311 311 309 307 304 304 304 304 304 304 304 303 303 304 305 306 306 307 306 303 301 302 304 305 305 305 304 303 303 303 303 303 303 303 303 303 304 307 308 308 308
Wind_Speed
10 9 7 5 4 3 3 5 6 5 4 3 3 2 1 1 1 2 3 4 5 7 9 10 11 11 11 11 11 12 12 11 11 11 11 11 11 11 11 10 11 11 11 11 11 11 10 10 9 8 7 6 6 7 8 8 8 8 8 8 8 10 12
9 8 6 5 3 2 2 5 6 6 5 4 3 3 2 1 1 2 3 4 5 5 7 8 9 10 11 11 12 13 13 13 13 14 14 12 11 11 11 12 11 11 11 11 11 11 11 12 11 9 8 7 8 8 9 9 9 9 9 9 9 10 10
9 8 6 5 3 1 1 5 6 6 5 4 4 4 3 2 2 2 3 5 5 6 6 7 8 10 11 12 12 13 13 13 14 16 17 15 13 12 12 12 13 12 12 11 11 11 11 12 12 11 10 9 10 10 9 9 9 9 10 11 11 11 11
8 7 6 5 3 1 1 3 5 6 6 5 5 4 3 3 3 2 3 4 5 6 7 7 8 9 10 11 11 12 13 13 14 15 16 16 15 15 14 13 14 14 13 13 12 11 11 12 12 12 11 11 12 11 10 10 9 10 11 12 13 13 14
9 7 6 5 4 3 2 3 5 5 5 5 5 4 3 3 3 3 3 4 5 6 6 6 8 8 9 10 10 11 11 11 12 13 14 15 15 16 15 15 14 14 14 14 14 13 13 13 13 13 12 12 13 12 11 11 10 11 12 13 13 14 14
9 7 6 5 5 5 4 4 4 5 5 4 4 3 2 3 4 3 3 4 5 5 4 5 6 7 8 9 10 10 10 10 10 11 11 12 13 15 15 15 14 14 14 14 14 14 14 13 13 14 13 13 14 14 12 12 12 12 12 12 12 13 13
9 8 8 6 5 5 5 5 5 5 5 4 3 3 3 3 4 5 4 4 5 4 4 4 4 5 6 7 8 9 9 10 10 10 10 10 11 13 14 14 15 14 14 13 13 13 13 13 12 12 12 13 14 15 14 13 13 13 13 12 12 12 12
9 8 8 7 5 5 5 5 6 6 6 5 4 5 5 5 5 6 7 6 6 5 4 3 3 4 3 4 6 8 8 9 10 11 11 10 10 11 12 13 14 14 14 13 12 12 12 12 12 11 12 12 13 15 15 15 14 14 13 12 11 12 11
9 8 8 7 6 6 6 6 7 7 7 7 7 7 7 7 7 8 8 8 9 8 7 6 5 5 5 3 4 6 7 7 9 10 10 11 11 11 11 12 12 13 13 12 12 12 12 12 12 12 12 13 15 16 16 16 15 14 13 13 12 11 11
9 9 9 8 6 6 6 7 8 8 8 8 8 8 8 8 9 10 10 10 11 11 11 9 8 7 8 7 6 6 7 7 8 8 8 9 9 10 11 11 12 13 13 12 12 13 13 12 13 13 13 14 15 16 17 16 15 13 12 12 12 11 9
10 11 11 10 9 8 8 9 9 9 9 10 10 10 10 9 9 10 11 12 13 13 13 13 12 11 10 10 9 9 8 9 8 7 7 7 7 8 9 10 12 12 12 12 13 13 13 13 13 13 14 14 14 15 16 16 16 15 13 12 11 11 10
11 12 13 12 11 11 10 11 11 10 10 11 13 13 12 11 10 9 11 13 14 14 15 15 15 14 14 14 13 12 11 11 11 10 9 9 8 8 7 8 9 11 11 12 12 12 12 12 12 12 13 14 14 15 15 16 17 16 14 12 12 11 10
13 13 14 13 13 12 13 14 14 14 14 14 15 15 14 13 13 12 12 14 15 15 16 17 17 16 16 16 15 14 13 13 14 13 12 11 10 9 9 8 8 9 9 10 10 11 11 11 12 12 12 12 13 14 14 14 16 16 14 13 13 11 10
13 13 13 13 13 14 15 16 16 16 17 16 16 16 16 17 18 17 16 16 17 18 18 18 18 18 17 17 17 16 16 15 15 14 14 14 13 12 12 11 10 10 10 11 11 11 10 11 12 12 12 12 12 12 13 14 16 16 14 13 13 12 12
11 11 11 12 13 14 14 14 14 14 15 16 17 17 17 17 18 18 18 18 20 21 21 19 19 18 16 17 18 18 19 19 18 17 17 16 15 15 15 15 15 14 13 15 16 15 13 13 14 13 13 14 14 14 14 16 17 17 16 15 15 15 15
8 9 10 11 12 12 11 11 11 11 11 12 13 14 13 14 15 16 16 17 19 20 20 19 20 19 18 18 19 19 21 21 21 21 20 18 17 16 17 19 19 19 18 18 19 19 18 17 17 18 17 17 17 17 17 17 18 19 18 18 18 17 16
7 7 8 9 9 9 8 8 8 8 8 8 9 9 9 10 11 11 11 11 11 12 13 13 15 18 19 18 19 22 23 22 23 24 24 24 22 21 23 23 23 23 22 23 23 23 23 22 20 21 22 21 21 21 19 18 20 22 21 21 20 17 16
5 5 6 6 6 6 6 6 6 5 5 5 5 5 6 6 6 6 6 7 8 8 8 8 9 12 14 15 18 22 23 23 23 23 22 22 21 22 24 23 23 23 21 21 24 25 26 26 24 25 25 23 24 23 20 20 22 24 24 24 21 18 16
2 2 2 3 3 4 4 4 4 3 3 3 3 3 4 4 5 5 6 6 6 6 6 6 7 8 9 10 12 13 14 15 15 14 13 14 14 15 17 17 18 20 17 17 21 21 22 23 23 24 25 24 23 21 20 20 21 22 23 23 21 19 18
2 2 2 3 4 4 3 2 2 3 3 3 3 3 4 4 5 6 7 7 7 7 7 7 7 8 8 9 9 10 10 10 10 10 11 11 11 12 14 14 13 15 15 14 15 14 15 16 17 18 20 20 19 19 19 19 19 20 21 21 19 18 17
4 4 3 3 4 4 3 3 4 4 5 5 5 4 5 5 5 7 8 9 9 9 9 9 9 9 10 11 12 12 12 12 11 10 10 10 10 10 12 12 11 11 12 11 11 11 11 12 12 14 16 16 17 18 19 19 19 18 18 18 18 17 17
4 3 2 2 2 2 3 4 4 5 6 6 5 5 5 5 5 5 7 9 9 9 10 10 11 11 11 12 13 12 12 13 13 11 10 11 11 11 12 12 11 12 12 12 12 12 12 12 12 13 14 14 15 16 16 16 16 16 16 17 16 15 15
5 4 3 3 2 0 2 3 4 4 4 4 5 4 4 4 3 2 4 7 8 8 9 10 11 11 11 12 13 12 11 11 11 9 9 9 10 11 10 10 12 14 14 14 14 13 13 13 12 13 14 14 15 15 15 15 15 15 16 14 13 13 13
5 4 3 3 3 2 1 2 3 3 4 5 4 4 3 3 3 3 4 6 6 6 8 10 10 10 10 10 11 10 8 7 7 6 6 6 6 7 8 9 13 15 14 13 14 14 14 14 14 15 15 16 17 16 16 17 16 16 15 14 14 14 13
2 2 2 2 3 3 2 2 2 1 2 2 2 2 2 3 3 2 3 4 5 5 7 8 8 8 8 7 7 7 5 4 4 4 4 5 4 5 6 8 10 11 11 11 12 13 13 13 14 14 15 16 17 17 17 17 18 17 17 15 14 13 14
3 3 3 3 3 3 2 2 3 3 2 1 1 1 0 1 1 1 1 3 4 4 5 6 7 6 7 6 6 7 6 4 4 4 3 4 4 4 4 5 6 7 7 6 7 7 7 8 8 9 10 11 12 12 12 13 13 13 14 13 11 10 13
7 6 5 5 6 6 5 5 6 6 6 5 5 4 4 4 3 3 3 3 4 4 5 5 5 5 5 4 4 5 5 5 4 4 3 3 3 4 3 3 4 5 4 4 3 3 4 4 4 4 5 5 6 7 7 8 9 10 10 11 9 8 9
10 10 8 8 9 9 9 9 9 9 8 8 8 7 7 6 6 5 5 5 4 4 4 3 3 3 3 3 2 2 3 2 2 2 2 2 1 2 2 2 2 3 3 3 2 2 3 2 2 3 4 4 5 6 6 6 7 7 8 8 8 6 6
11 11 10 11 10 10 11 11 10 10 9 9 9 8 8 8 7 7 6 6 6 6 5 5 5 4 4 4 4 4 5 5 3 2 3 2 2 0 1 1 1 1 2 2 2 2 1 1 0 2 4 4 4 4 4 4 4 5 5 5 5 4 4
11 10 10 10 10 10 10 9 9 9 8 7 7 6 6 6 6 6 6 7 7 7 7 7 6 6 6 6 5 5 5 4 4 4 4 3 2 1 0 0 0 1 2 3 4 3 2 1 0 1 2 2 2 2 2 2 3 3 3 3 3 3 3
10 10 9 9 9 9 8 8 8 7 6 5 6 5 5 5 5 6 6 6 6 6 7 7 7 6 6 5 5 5 4 3 4 4 4 3 2 1 2 1 2 3 4 5 5 4 4 2 0 0 0 0 1 1 2 3 3 4 4 4 4 4 4
9 8 8 8 8 8 7 7 7 7 5 4 5 5 4 5 5 5 7 8 8 7 8 8 8 7 6 5 3 4 2 2 2 2 2 3 2 2 4 5 5 6 6 7 7 6 5 4 2 1 0 1 1 2 4 5 4 4 5 4 5 5 5
8 7 7 7 7 6 6 6 6 6 5 4 4 5 5 5 5 5 7 9 10 10 10 10 10 9 8 6 5 3 2 1 2 1 2 3 3 4 5 6 8 8 8 8 9 8 7 6 5 3 1 1 3 4 5 5 5 5 5 5 6 7 7
7 6 5 5 5 5 5 5 5 5 5 4 5 6 6 6 6 7 7 8 9 9 10 10 10 10 9 8 7 6 3 1 2 3 3 4 5 5 5 5 8 12 12 11 11 11 10 9 8 6 5 5 6 7 6 6 6 6 7 7 7 7 7
6 5 5 5 5 5 5 5 5 5 5 6 7 7 7 7 7 8 8 8 8 8 9 9 9 9 10 9 9 9 7 6 6 5 5 6 7 8 7 7 11 15 15 13 13 13 13 12 11 10 9 9 9 9 8 8 8 9 8 8 8 8 8
6 5 5 5 5 5 5 6 6 7 7 7 8 8 8 8 8 8 8 8 7 8 9 9 9 10 10 10 11 11 11 11 11 10 9 9 8 10 10 10 14 17 17 15 15 15 15 16 15 14 13 13 13 12 11 10 10 10 10 10 11 11 10
6 6 6 6 6 5 6 6 6 7 7 8 8 8 8 8 9 9 8 8 8 7 7 9 10 12 11 11 12 12 13 13 14 14 14 13 13 13 13 13 16 18 17 16 17 17 17 18 18 17 17 16 16 16 16 15 14 15 14 13 14 14 14
Wind_Direction
177 177 178 174 172 189 215 211 211 218 223 224 214 207 212 223 212 203 200 201 207 217 223 225 226 230 232 235 237 235 240 251 252 252 256 261 265 266 265 261 257 259 263 264 269 276 280 279 274 265 257 254 256 256 253 249 249 251 250 247 244 247 253
184 179 175 185 208 238 231 211 210 216 221 223 216 209 214 236 256 240 231 223 214 212 217 224 227 230 231 232 235 239 243 250 253 254 255 257 262 264 265 265 261 261 263 264 265 266 269 273 274 270 263 262 265 266 260 255 253 248 249 253 249 246 248
187 178 173 190 222 272 245 217 213 212 217 222 215 211 216 231 248 244 233 231 225 219 216 221 227 229 230 230 234 240 241 243 248 254 257 257 258 259 259 261 260 259 260 261 259 259 262 265 269 273 274 273 273 270 264 259 256 250 250 254 255 252 251
191 177 174 193 207 209 186 198 205 207 207 206 200 202 206 224 252 258 237 230 229 228 224 227 234 236 237 235 234 236 237 238 243 250 255 255 255 257 257 256 257 257 259 262 263 264 265 265 268 271 272 274 275 273 266 257 252 253 254 254 255 256 254
200 185 183 189 181 181 178 172 179 181 185 187 188 200 217 231 254 267 249 230 230 235 229 232 242 241 237 234 231 232 235 237 239 243 249 250 250 252 254 255 257 258 260 262 265 267 267 268 271 274 276 276 275 275 270 261 258 261 259 256 256 257 257
204 193 190 191 185 188 185 184 185 178 180 187 196 219 244 251 259 269 264 240 235 240 230 226 237 242 239 232 229 230 231 235 239 241 245 248 247 247 249 252 255 257 259 262 264 265 266 268 271 277 282 280 275 276 277 272 269 268 264 259 260 261 261
204 200 198 199 201 200 192 194 202 207 206 206 218 232 236 240 250 261 265 255 243 244 240 221 217 230 233 226 227 232 231 234 239 241 244 248 248 247 245 245 249 252 255 260 263 264 265 267 270 275 282 283 278 275 276 275 270 269 267 265 266 266 266
205 208 204 199 201 207 206 204 208 217 218 220 232 237 239 240 244 252 259 260 255 251 252 241 222 225 224 208 223 235 236 238 242 243 245 246 247 248 245 243 244 247 251 256 259 261 263 264 266 270 274 277 276 272 273 274 272 271 271 271 273 272 271
206 204 202 203 205 207 211 213 216 220 221 225 231 233 240 247 248 249 252 256 257 257 257 254 247 245 247 239 235 243 247 248 250 251 250 250 249 248 246 245 245 244 247 250 252 254 258 261 262 263 264 265 268 271 272 273 273 272 274 277 277 275 273
207 205 204 208 210 213 220 222 221 226 226 227 231 236 244 249 251 251 248 246 247 251 254 254 252 249 255 260 257 258 263 261 258 257 253 253 253 252 249 246 246 246 246 248 251 251 254 259 260 260 262 260 262 268 271 273 273 273 276 278 277 278 280
207 208 211 214 219 225 232 233 230 231 233 233 235 241 247 250 252 254 253 251 250 250 250 250 250 249 254 261 262 263 264 263 262 259 256 258 258 257 255 250 248 247 247 248 250 251 253 257 259 259 260 260 259 261 266 271 272 273 277 277 276 279 281
211 216 221 225 233 236 237 240 240 238 239 239 241 245 249 251 252 253 256 258 256 254 252 251 251 251 253 258 263 264 260 259 262 263 263 261 259 260 263 259 252 248 247 248 248 250 253 255 257 258 258 259 260 258 259 264 267 272 276 275 276 278 277
217 223 229 232 240 246 248 249 250 250 249 247 249 252 253 253 256 259 261 258 257 257 254 253 252 253 254 256 259 262 260 258 259 261 262 260 258 260 264 265 260 253 249 246 245 248 249 250 253 255 256 257 258 258 257 258 263 271 274 272 276 279 277
221 226 235 241 247 252 256 257 257 256 255 255 257 259 261 263 264 265 263 258 257 256 253 252 251 252 255 257 259 260 259 259 259 258 259 258 257 259 260 259 257 258 257 253 250 250 250 253 255 254 251 249 251 255 254 252 257 265 270 271 274 277 279
228 232 242 250 253 256 257 258 257 255 256 259 261 263 265 265 265 265 262 257 256 256 254 251 249 250 253 256 257 258 258 257 257 257 255 254 256 259 261 259 255 255 257 257 256 255 252 253 256 253 250 251 254 255 253 252 256 261 266 270 272 277 282
230 235 243 248 251 254 256 257 258 258 261 263 265 266 264 262 264 266 264 262 262 264 265 261 254 251 252 254 254 255 257 257 256 257 256 256 258 256 256 258 257 255 257 259 261 261 258 253 252 252 254 258 259 257 255 255 256 259 264 269 274 280 284
231 238 244 245 247 250 251 254 259 265 270 270 268 269 270 269 270 271 271 273 274 274 276 275 264 253 251 253 254 255 258 261 262 261 260 259 259 256 256 261 264 263 262 261 261 262 260 257 257 257 257 258 257 257 257 256 256 260 265 270 275 279 282
227 236 240 239 240 240 240 247 256 262 269 275 274 272 272 272 275 277 277 281 285 283 280 280 273 263 257 259 263 263 264 266 267 267 265 262 260 260 260 261 264 265 264 264 264 262 258 258 261 261 259 258 260 261 258 254 257 263 268 272 275 277 277
197 213 221 209 201 211 222 235 249 249 247 262 269 260 258 261 264 264 260 261 268 272 268 261 262 267 267 268 271 271 269 268 268 269 268 266 266 266 266 264 261 261 262 267 270 267 260 259 260 261 260 260 263 264 259 256 260 266 271 273 273 274 274
142 158 178 174 183 199 210 215 227 231 226 234 243 244 252 261 260 251 247 248 249 253 261 261 258 259 259 262 267 267 266 266 266 268 269 268 267 269 273 277 273 269 269 271 270 267 263 263 263 261 260 259 260 262 262 263 266 267 270 272 270 270 272
135 146 159 167 182 193 198 203 208 212 214 217 222 229 239 250 259 255 251 251 252 257 264 267 267 268 263 260 262 261 261 260 259 261 263 264 265 263 267 276 278 272 267 263 262 262 264 266 262 255 254 253 254 258 263 266 269 269 269 269 271 272 274
119 118 125 141 172 197 207 214 212 213 220 222 221 226 230 239 254 261 260 262 263 265 266 263 263 264 263 263 263 264 265 263 260 258 252 251 255 257 262 269 269 263 260 261 264 264 262 262 259 254 253 254 256 260 264 267 270 273 273 273 276 279 281
113 108 102 92 86 177 227 224 214 220 229 224 219 226 236 247 258 274 277 274 272 271 270 267 266 263 264 267 269 270 272 270 269 268 264 260 260 263 269 272 268 266 265 266 268 266 261 260 260 259 260 262 265 267 269 271 273 276 277 279 282 282 286
102 97 89 80 83 100 188 211 200 210 224 222 224 232 249 262 258 264 279 280 279 276 273 274 275 272 270 272 274 276 278 276 273 272 273 271 266 265 266 264 266 269 267 263 263 262 260 259 258 259 260 261 264 267 268 269 269 272 275 278 281 284 287
85 70 77 85 98 109 128 158 142 156 219 235 245 248 261 269 264 267 279 287 291 291 287 287 289 289 285 283 283 283 284 286 280 273 271 270 265 261 256 258 268 272 268 263 263 261 260 258 257 259 259 259 261 262 263 264 264 266 269 271 275 281 280
75 77 84 85 91 98 100 103 99 100 108 104 102 115 113 52 46 34 348 322 319 314 311 307 303 300 294 287 282 277 275 276 275 274 276 276 270 264 259 263 276 278 270 264 263 260 264 267 265 267 267 265 265 264 264 267 269 270 270 269 270 273 272
83 82 82 81 86 89 91 93 94 96 96 90 85 77 69 64 60 51 32 15 358 339 329 324 315 309 303 295 282 269 267 268 267 275 287 282 272 268 261 254 265 275 280 283 280 268 267 271 272 273 271 269 279 287 286 280 280 278 272 268 265 263 268
83 83 85 87 88 90 90 91 91 90 87 83 77 72 70 68 65 63 60 51 37 20 5 355 346 345 343 335 320 304 310 311 287 288 311 307 280 263 251 244 253 271 282 287 294 281 266 256 256 278 297 303 301 303 301 290 285 282 278 271 266 264 266
81 81 81 83 84 86 86 85 83 79 74 72 70 67 66 65 61 58 56 52 44 34 26 22 18 19 18 9 5 17 19 14 5 1 2 5 10 5 202 218 235 263 292 303 321 320 316 2 308 294 313 320 315 309 301 295 289 284 282 277 272 272 273
79 79 78 78 78 77 76 73 74 70 62 57 57 53 50 48 45 44 42 39 35 24 19 20 19 20 23 20 28 42 34 13 5 11 10 11 21 18 19 91 231 316 322 315 317 320 322 1 76 290 305 314 324 329 315 305 300 293 287 276 271 269 267
75 73 73 72 69 66 62 59 61 62 52 39 34 32 27 13 8 11 10 15 18 10 6 9 11 16 21 23 43 61 45 358 358 13 4 358 11 347 324 323 307 309 306 300 303 304 299 296 187 208 332 308 276 298 302 306 302 293 287 274 270 272 271
67 64 62 62 61 57 51 46 47 45 37 21 9 7 1 347 342 342 349 1 11 5 358 358 2 9 11 10 35 68 56 347 346 19 351 333 332 311 310 311 304 301 298 295 295 290 284 284 270 236 16 340 270 268 290 302 299 296 298 290 284 290 293
55 53 49 47 46 44 38 30 25 20 14 359 344 339 340 340 335 329 341 357 6 7 2 358 356 0 3 2 10 35 60 338 317 325 288 287 280 277 295 305 301 300 302 296 290 284 279 277 271 264 276 288 269 267 281 291 288 287 293 291 289 298 306
39 37 30 24 18 15 8 356 348 349 345 332 324 324 325 327 327 324 327 337 345 354 359 357 353 353 356 356 356 3 9 313 290 288 272 273 271 267 274 280 281 290 299 299 292 286 279 273 269 265 263 261 261 266 275 282 284 284 286 286 288 294 297
19 16 7 1 353 344 337 331 325 322 318 314 315 316 316 316 316 315 316 316 318 324 334 343 346 346 347 348 349 349 344 328 321 317 298 284 275 272 275 269 269 281 291 294 291 287 281 273 267 262 260 260 261 265 269 269 274 281 283 280 277 274 269
6 360 349 345 341 333 326 322 316 311 310 311 310 310 310 309 309 311 312 311 306 302 306 319 330 332 331 330 330 332 331 326 324 324 316 303 287 281 281 275 275 284 291 288 284 284 281 275 269 263 261 260 259 260 263 264 267 270 269 264 261 259 257
2 358 351 348 343 332 325 322 319 312 310 309 309 309 308 306 306 308 309 310 310 306 300 301 311 323 329 327 321 321 321 318 315 313 310 305 298 292 288 282 283 290 293 289 283 280 278 275 271 267 264 262 260 259 259 260 264 266 264 259 257 256 255